Terminal Aerodrome Forecast
Issued by NWS

Home | Current Version | Previous Version | Text Only | Print | Product List | Glossary On
Versions: 1 2 3 4 5 6 7 8 9 10 11 12 13 14 15 16 17 18 19 20 21 22 23 24 25 26 27
000
FTUS41 KBOX 301122
TAFFMH
TAF
KFMH 301122Z 3012/0112 03005KT 2SM BR OVC003
     FM301700 03008KT P6SM OVC012
     FM302300 04007KT P6SM OVC008=

USA.gov is the U.S. government's official web portal to all federal, state and local government web resources and services.